Location: B�hl
(48.6968°N, 8.1352°E)
Time: 02:46:36
(UTC+00:00)

USA 307 - Pass Details

Date: 08 March 2021
Orbit: 567 x 577 km, 54.0° (Epoch: 16 April)

Event Time Altitude Azimuth Distance (km) Brightness Sun altitude
Rises 18:26:46 0° 294° (WNW) 2,788 8.0 -11.5°
Reaches altitude 10° 18:29:04 10° 299° (WNW) 1,886 6.7 -11.8°
Maximum altitude 18:33:17 54° 17° (NNE) 703 3.3 -12.5°
Enters shadow 18:36:01 20° 89° (E) 1,338 4.1 -13.0°
